{"data":{"norad_id":67123,"intl_designator":"2025-299X","name":"STARLINK-36151","alt_names":[],"object_type":"PAYLOAD","status":"ACTIVE","operator":null,"country":"US","launch_date":"2025-12-15","launch_site_code":"AFETR","launch_vehicle":null,"mission":null,"orbit_class":"UNKNOWN","rcs_meters":null,"size_class":null,"mass_kg":null,"dimensions":null,"purposes":["comms"],"wikipedia_slug":null,"has_3d_model":false,"image_url":null,"decayed_at":null,"tle_current":{"epoch":"2026-05-25T03:52:05.585664Z","epoch_age_seconds":71684,"freshness":"FRESH","line1":"1 67123U 25299X   26145.16117576  .00014600  00000+0  53899-3 0  9995","line2":"2 67123  43.0000  96.9388 0000677 263.0885  96.9890 15.27581611 24816","mean_motion":15.27581611,"eccentricity":6.77e-5,"inclination_deg":43,"raan_deg":96.9388,"arg_perigee_deg":263.0885,"mean_anomaly_deg":96.989,"bstar":0.00053899,"rev_number":2481,"period_min":94.266649299171,"perigee_km":482.57977015822,"apogee_km":483.50877410246,"semimajor_km":6861.1812721303,"source":"CELESTRAK","updated_at":"2026-05-25T13:38:21.477324Z"}}}